User: anonymous   Login
Location: Unspecified
(0.0000°N, 0.0000°E)
Time: 10:50:36
(UTC+00:00)
Language:

STARLINK-31004 - Orbit

View from above orbital plane
View from above orbital plane
View from above satellite
View from above satellite

Ground track
Ground track

The orbit is defined by the following mean orbital elements,

1 58528U          26145.39369063 +.00000000 +00000-0 +63437-4 0 00005
2 58528  43.0030  30.1231 0000884 271.3021  88.7729 15.27577969    05
Epoch (UTC): 25 May 2026 09:26:54
Eccentricity: 0.0000884
inclination: 43.0030°
perigee height: 482 km
apogee height: 484 km
right ascension of ascending node: 30.1231°
argument of perigee: 271.3021°
revolutions per day: 15.27577969
mean anomaly at epoch: 88.7729°

The dashed part of the orbit path shows where the satellite is in the earth's shadow,  

DLR